Flag for Canada Weather past 2 weeks in Prince Albert, Saskatchewan, Canada

Now
52 °F

Cloudy.


Feels Like: 48 °F
Forecast: 47 / 54 °F
Wind: 10 mph from Northeast

Location: Prince Albert

Current Time: Sep 5, 2015 at 9:27:15 AM

Latest Report: Sep 5, 2015 at 9:00 AM


Visibility: 15 mi

Pressure: 30.14 "Hg

Humidity: 77%

Dew point: 45 °F

Location of Prince AlbertLocation

Historic Weather in Prince Albert — Graph

°F

Prince Albert temperature yesterday

Maximum temperature yesterday: 61 °F (at 3:00 PM)
Minimum temperature yesterday: 45 °F (at 6:00 AM)
Average temperature yesterday: 52 °F

Past Weeks' High & Low Weather Summary

 TemperatureHumidityPressure
High82 °F (Aug 28, 3:00 PM)100% (Aug 23, 3:00 AM)30.18 "Hg (Aug 23, 3:00 AM)
Low37 °F (Aug 24, 4:00 AM)32% (Aug 31, 5:00 PM)29.50 "Hg (Aug 31, 5:00 AM)
Average59 °F74%29.86 "Hg
* Reported Aug 21 8:00 AM — Sep 5 8:00 AM, Prince Albert, Weather by CustomWeather, © 2015

Note: Actual official high and low records may vary slightly from our data, if they occured in-between our weather recording intervals... More about our weather records

Advertising

Prince Albert weather history for previous 24 hours

 ConditionsComfort  
Time TempWeatherWind HumidityBarometerVisibility
8:00 AM
Sat, Sep 5
50 °FBroken clouds.8 mph82%30.15 "Hg15 mi
7:00 AM50 °FPartly sunny.3 mph82%30.16 "Hg15 mi
6:00 AM50 °FOvercast.5 mph82%30.14 "Hg15 mi
5:00 AM50 °FOvercast.5 mph82%30.14 "Hg15 mi
4:00 AM50 °FOvercast.7 mph82%30.16 "Hg15 mi
3:00 AM50 °FOvercast.2 mph82%30.16 "Hg15 mi
2:00 AM50 °FOvercast.5 mph82%30.17 "Hg15 mi
1:00 AM50 °FOvercast.6 mph82%30.16 "Hg15 mi
12:00 AM52 °FOvercast.5 mph72%30.17 "Hg15 mi
11:00 PM
Fri, Sep 4
52 °FOvercast.3 mph77%30.16 "Hg15 mi
10:00 PM52 °FOvercast.7 mph77%30.16 "Hg15 mi
9:00 PM52 °FPassing clouds.5 mph77%30.18 "Hg15 mi
8:00 PM54 °FOvercast.10 mph67%30.16 "Hg15 mi
7:00 PM55 °FPartly sunny.9 mph67%30.13 "Hg15 mi
6:00 PM57 °FPartly sunny.13 mph63%30.11 "Hg15 mi
5:00 PM61 °FPassing clouds.10 mph55%30.09 "Hg15 mi
4:00 PM61 °FScattered clouds.13 mph55%30.09 "Hg15 mi
3:00 PM61 °FBroken clouds.10 mph52%30.10 "Hg15 mi
2:00 PM57 °FMostly cloudy.9 mph63%30.12 "Hg15 mi
1:00 PM57 °FMostly cloudy.8 mph63%30.14 "Hg15 mi
12:00 PM54 °FOvercast.5 mph77%30.15 "Hg15 mi
11:00 AM54 °FOvercast.5 mph72%30.13 "Hg15 mi
10:00 AM52 °FMostly cloudy.5 mph77%30.12 "Hg15 mi
9:00 AM50 °FMostly cloudy.3 mph82%30.11 "Hg15 mi
Weather by CustomWeather, © 2015

See weather overviewHow to use our weather pages